Terminal Aerodrome Forecast
Issued by NWS Melbourne, FL

Home | Current Version | Previous Version | Text Only | Print | Product List | Glossary On
Versions: 1 2 3 4 5 6 7 8 9 10 11 12 13 14 15 16 17 18 19 20
000
FTUS42 KMLB 231455 AAA
TAFVRB
TAF AMD
KVRB 231455Z 2315/2412 25006KT 4SM BR BKN003
      TEMPO 2315/2317 SCT004 BKN010
     FM231700 05009KT P6SM SCT020 BKN040
     FM240000 36004KT P6SM FEW015=

USA.gov is the U.S. government's official web portal to all federal, state and local government web resources and services.